Location: Acheville
(50.3840°N, 2.8827°E)
Time: 15:09:32
(UTC+00:00)

Cosmos 407 Rocket - Pass Details

Date: 24 October 2021
Orbit: 743 x 787 km, 74.0° (Epoch: 28 November)

Event Time Altitude Azimuth Distance (km) Brightness Sun altitude
Rises 18:09:52 0° 339° (NNW) 3,268 7.0 -15.1°
Reaches altitude 10° 18:12:22 10° 346° (NNW) 2,343 6.2 -15.5°
Maximum altitude 18:17:27 43° 58° (ENE) 1,087 3.9 -16.4°
Enters shadow 18:20:06 25° 114° (ESE) 1,534 4.5 -16.8°
